EW5179 Weather Reports


time (UTC)temp
F
wind
direction
speed
knots
gust
knots
rain 1hr
in
rain 24hr
in
rain mn
in
humidity
%
barometer
mb
20260504000041 62 160 5.2 10.4 0.00 0.00 0.00 59 1025.6
20260503234539 63 141 6.1 13.9 0.00 0.00 0.00 58 1025.7
20260503233025 62 239 5.2 10.4 0.00 0.00 0.00 59 1025.8
20260503231525 62 162 7.0 13.9 0.00 0.00 0.00 59 1026.0
20260503230036 62 323 4.3 11.3 0.00 0.00 0.00 62 1025.9
20260503224522 61 25 6.1 16.5 0.00 0.00 0.00 62 1025.6
20260503223020 62 235 7.0 14.8 0.00 0.00 0.00 58 1026.7
20260503221518 62 162 7.0 15.6 0.00 0.00 0.00 57 1026.3
20260503220018 62 173 5.2 14.8 0.00 0.00 0.00 57 1026.8
20260503214534 62 250 8.7 16.5 0.00 0.00 0.00 56 1026.7
20260503213004 62 205 5.2 14.8 0.00 0.00 0.00 56 1027.0
20260503211501 61 175 7.0 14.8 0.00 0.00 0.00 56 1027.0
20260503210059 61 248 7.0 17.4 0.00 0.00 0.00 56 1027.7
20260503204620 61 186 5.2 20.0 0.00 0.00 0.00 56 1027.8
20260503203100 61 193 7.8 15.6 0.00 0.00 0.00 56 1028.4
20260503201555 61 214 7.0 14.8 0.00 0.00 0.00 57 1028.1
20260503200051 61 154 9.6 20.9 0.00 0.00 0.00 55 1029.2
20260503194549 61 238 7.8 13.9 0.00 0.00 0.00 56 1029.7
20260503193044 61 235 8.7 14.8 0.00 0.00 0.00 54 1030.4
20260503191602 61 231 7.0 21.7 0.00 0.00 0.00 55 1030.5
20260503190036 62 224 9.6 16.5 0.00 0.00 0.00 54 1030.3
20260503184536 61 185 12.2 25.2 0.00 0.00 0.00 52 1030.5
20260503183031 61 219 7.0 19.1 0.00 0.00 0.00 55 1030.6
20260503181541 61 236 10.4 19.1 0.00 0.00 0.00 53 1031.0
20260503180029 61 217 13.0 25.2 0.00 0.00 0.00 54 1031.3
20260503174525 61 159 9.6 20.0 0.00 0.00 0.00 55 1031.6
20260503173011 61 166 9.6 15.6 0.00 0.00 0.00 57 1032.2
20260503171508 61 218 12.2 20.0 0.00 0.00 0.00 54 1032.5
20260503160107 58 166 8.7 19.1 0.00 0.00 0.00 60 1033.7
20260503081510 37 32 0.0 0.0 0.00 0.00 0.00 97 1034.5
20260503071538 36 32 0.0 0.0 0.00 0.00 0.00 95 1034.5
20260503054544 36 32 0.0 0.0 0.00 0.00 0.00 93 1034.9
20260503053031 37 32 0.0 0.0 0.00 0.00 0.00 93 1035.0
20260503051510 37 32 0.0 0.0 0.00 0.00 0.00 93 1035.1
20260503050010 37 32 0.0 0.0 0.00 0.00 0.00 92 1035.0
20260503044556 37 32 0.0 0.0 0.00 0.00 0.00 92 1035.1
20260503043058 37 32 0.0 0.0 0.00 0.00 0.00 91 1034.9
20260503041554 38 32 0.0 0.0 0.00 0.00 0.00 90 1035.1
20260503040055 38 32 0.0 0.0 0.00 0.00 0.00 90 1035.1
20260503034550 39 32 0.0 0.0 0.00 0.00 0.00 89 1035.1
20260503033048 39 32 0.0 0.0 0.00 0.00 0.00 87 1035.2
20260503031547 39 32 0.0 0.0 0.00 0.00 0.00 86 1035.1
20260503030044 40 32 0.0 0.0 0.00 0.00 0.00 84 1035.1
20260503024528 41 32 0.0 0.0 0.00 0.00 0.00 82 1035.1
20260503023028 41 32 0.0 0.0 0.00 0.00 0.00 82 1035.0
20260503021514 42 32 0.0 0.0 0.00 0.00 0.00 78 1034.9
20260503020014 43 32 0.0 0.0 0.00 0.00 0.00 75 1034.8
20260503014513 44 32 0.0 0.0 0.00 0.00 0.00 72 1034.6
20260503013027 44 32 0.0 0.0 0.00 0.00 0.00 70 1034.5
20260503011512 46 32 0.0 0.0 0.00 0.00 0.00 64 1034.4
20260503010013 48 32 0.0 0.0 0.00 0.00 0.00 62 1034.2
20260503004512 49 32 0.0 0.0 0.00 0.00 0.00 58 1034.2
20260503003012 52 32 0.0 0.0 0.00 0.00 0.00 48 1034.2
20260503001554 54 32 0.0 1.7 0.00 0.00 0.00 45 1034.2